Satellite-Ground Cal/Val Site Overpasses Predictions

Prediction of Satellite NPP Overpassing Cal/Val Site: Antarctic Dome C

Ground Cal/Val Site Location: Latitude: -75.10, Longitude: 123.35; Satellite-Ground Site NADIR distance within 100 km.

Table of predicted overpasses for the next 14.0 days since TLE Epoch: 4/13/2018
Interval Starting Time Ending Time Minimum Distance Time Minimum Distance (km)
1 04/14/2018 07:25:01 04/14/2018 07:25:28 04/14/2018 07:25:15 37.83
2 04/16/2018 15:07:29 04/16/2018 15:07:36 04/16/2018 15:07:32 96.10
3 04/17/2018 14:48:27 04/17/2018 14:48:56 04/17/2018 14:48:42 15.07
4 04/19/2018 07:31:17 04/19/2018 07:31:47 04/19/2018 07:31:32 1.32
5 04/22/2018 14:54:46 04/22/2018 14:55:14 04/22/2018 14:55:00 21.38
6 04/23/2018 14:36:03 04/23/2018 14:36:18 04/23/2018 14:36:11 85.56
7 04/24/2018 07:37:36 04/24/2018 07:38:04 04/24/2018 07:37:50 35.06
8 04/25/2018 07:18:50 04/25/2018 07:19:09 04/25/2018 07:19:00 74.98


NCC Satellite Cal/Val Overpasses Prediction Service
